カタログに戻る

DELTA 1 DEB

運用中LEO
NORAD 39100·DEBRIS·🇺🇸 United States

打ち上げ Jul 14, 1977 から Cape Canaveral Space Force Station

Loading…

次のパス (今後24時間)

TLE

最新Source: Space-Track

元期: Sep 14, 2026, 03:18 UTC

1 39100U 77065GM  26257.13805468  .00005280  00000-0  38928-3 0  9993
2 39100  29.2743 247.8122 0327016 209.6443 148.5245 14.67198028745196

AllMySatでDELTA 1 DEBをリアルタイム追跡

Download on the App Store